Torna al catalogo

STARLINK-32489

AttivoComunicazioniVLEO
NORAD 61893·PAYLOAD·🇺🇸 United States

Lanciato Nov 9, 2024 da Vandenberg Space Force Base

Loading…

Prossimi Passaggi (prossime 24 ore)

TLE

AggiornatoSource: CelesTrak SupGP

Epoca: Sep 14, 2026, 22:42 UTC

1 61893C 24204V   26257.94631944  .00020802  00000+0  61502-3 0  2576
2 61893  53.1590 323.6049 0001255  91.9665 339.6298 15.34359143    17

Traccia STARLINK-32489 in tempo reale con AllMySat

Download on the App Store